TimeCST,TemperatureF,Dew PointF,Humidity,Sea Level PressureIn,VisibilityMPH,Wind Direction,Wind SpeedMPH,Gust SpeedMPH,PrecipitationIn,Events,Conditions,WindDirDegrees,DateUTC
12:15 AM,34.5,28.6,79,30.44,10.0,Calm,Calm,-,N/A,,Clear,0,2012-11-16 06:15:00
12:35 AM,32.2,28.4,86,30.44,10.0,Calm,Calm,-,N/A,,Clear,0,2012-11-16 06:35:00
12:55 AM,32.7,28.2,83,30.44,10.0,Calm,Calm,-,N/A,,Clear,0,2012-11-16 06:55:00
1:15 AM,30.7,27.1,86,30.44,10.0,North,4.6,-,N/A,,Clear,350,2012-11-16 07:15:00
1:35 AM,31.6,27.9,86,30.44,10.0,NNW,3.5,-,N/A,,Clear,330,2012-11-16 07:35:00
1:55 AM,31.8,27.9,85,30.44,10.0,Calm,Calm,-,N/A,,Clear,0,2012-11-16 07:55:00
2:15 AM,29.8,26.6,88,30.44,10.0,Calm,Calm,-,N/A,,Clear,0,2012-11-16 08:15:00
2:35 AM,29.7,27.0,90,30.44,10.0,Calm,Calm,-,N/A,,Clear,0,2012-11-16 08:35:00
2:55 AM,29.7,26.4,88,30.44,10.0,Calm,Calm,-,N/A,,Clear,0,2012-11-16 08:55:00
3:15 AM,30.6,27.3,88,30.44,10.0,Calm,Calm,-,N/A,,Clear,0,2012-11-16 09:15:00
3:35 AM,27.0,24.3,90,30.44,10.0,Calm,Calm,-,N/A,,Clear,0,2012-11-16 09:35:00
3:55 AM,26.4,24.8,94,30.43,10.0,Calm,Calm,-,N/A,,Clear,0,2012-11-16 09:55:00
4:15 AM,28.2,26.2,92,30.42,10.0,Calm,Calm,-,N/A,,Clear,0,2012-11-16 10:15:00
4:35 AM,27.0,24.8,92,30.42,10.0,Calm,Calm,-,N/A,,Clear,0,2012-11-16 10:35:00
4:55 AM,26.2,24.3,92,30.42,10.0,Calm,Calm,-,N/A,,Clear,0,2012-11-16 10:55:00
5:15 AM,24.1,22.1,92,30.42,10.0,Calm,Calm,-,N/A,,Clear,0,2012-11-16 11:15:00
5:35 AM,25.5,23.7,93,30.41,10.0,Calm,Calm,-,N/A,,Clear,0,2012-11-16 11:35:00
5:55 AM,25.0,23.7,95,30.41,10.0,Calm,Calm,-,N/A,,Clear,0,2012-11-16 11:55:00
6:15 AM,23.9,22.3,94,30.41,10.0,Calm,Calm,-,N/A,,Clear,0,2012-11-16 12:15:00
6:35 AM,23.5,22.5,96,30.42,10.0,Calm,Calm,-,N/A,,Clear,0,2012-11-16 12:35:00
6:55 AM,23.9,22.5,94,30.43,10.0,Calm,Calm,-,N/A,,Clear,0,2012-11-16 12:55:00
7:15 AM,23.7,22.1,94,30.44,10.0,Calm,Calm,-,N/A,,Clear,0,2012-11-16 13:15:00
7:35 AM,22.8,20.5,91,30.44,10.0,Calm,Calm,-,N/A,,Clear,0,2012-11-16 13:35:00
7:55 AM,23.5,21.9,94,30.44,10.0,Calm,Calm,-,N/A,,Clear,0,2012-11-16 13:55:00
8:15 AM,26.4,25.0,94,30.44,10.0,Calm,Calm,-,N/A,,Clear,0,2012-11-16 14:15:00
8:35 AM,27.5,25.5,92,30.44,10.0,Calm,Calm,-,N/A,,Clear,0,2012-11-16 14:35:00
8:55 AM,29.3,26.8,90,30.44,10.0,Calm,Calm,-,N/A,,Clear,0,2012-11-16 14:55:00
9:15 AM,32.7,30.0,90,30.44,10.0,Calm,Calm,-,N/A,,Clear,0,2012-11-16 15:15:00
9:35 AM,37.2,32.5,83,30.44,10.0,ESE,3.5,-,N/A,,Clear,110,2012-11-16 15:35:00
9:55 AM,43.0,35.1,74,30.44,10.0,SE,8.1,-,N/A,,Clear,140,2012-11-16 15:55:00
10:15 AM,45.0,35.6,70,30.44,10.0,SSE,6.9,-,N/A,,Clear,150,2012-11-16 16:15:00
10:35 AM,47.3,36.1,65,30.43,10.0,SE,8.1,-,N/A,,Clear,140,2012-11-16 16:35:00
10:55 AM,50.4,37.0,60,30.42,10.0,SSE,6.9,-,N/A,,Clear,160,2012-11-16 16:55:00
11:15 AM,52.3,36.0,54,30.41,10.0,SSE,10.4,-,N/A,,Clear,150,2012-11-16 17:15:00
11:35 AM,53.6,35.6,51,30.40,10.0,SE,9.2,-,N/A,,Clear,140,2012-11-16 17:35:00
11:55 AM,55.4,34.9,46,30.39,10.0,SSE,11.5,-,N/A,,Clear,150,2012-11-16 17:55:00
12:15 PM,56.3,34.7,44,30.37,10.0,SE,11.5,-,N/A,,Clear,140,2012-11-16 18:15:00
12:35 PM,57.4,34.3,42,30.36,10.0,SSE,10.4,-,N/A,,Clear,160,2012-11-16 18:35:00
12:55 PM,58.1,33.1,39,30.36,10.0,South,10.4,17.3,N/A,,Clear,170,2012-11-16 18:55:00
1:15 PM,59.0,32.5,37,30.35,10.0,SSE,12.7,17.3,N/A,,Clear,160,2012-11-16 19:15:00
1:35 PM,59.2,32.2,36,30.33,10.0,SSE,13.8,17.3,N/A,,Clear,160,2012-11-16 19:35:00
1:55 PM,59.7,31.8,35,30.32,10.0,SSE,12.7,-,N/A,,Clear,150,2012-11-16 19:55:00
2:15 PM,60.3,32.0,34,30.32,10.0,SSE,11.5,-,N/A,,Clear,160,2012-11-16 20:15:00
2:35 PM,59.9,32.0,35,30.31,10.0,South,13.8,-,N/A,,Clear,170,2012-11-16 20:35:00
2:55 PM,59.9,32.4,35,30.30,10.0,SSE,12.7,17.3,N/A,,Clear,160,2012-11-16 20:55:00
3:15 PM,59.9,32.4,35,30.30,10.0,South,10.4,-,N/A,,Clear,170,2012-11-16 21:15:00
3:35 PM,59.4,31.8,35,30.30,10.0,South,12.7,16.1,N/A,,Clear,170,2012-11-16 21:35:00
3:55 PM,58.5,31.8,37,30.30,10.0,South,11.5,16.1,N/A,,Clear,170,2012-11-16 21:55:00
4:15 PM,57.4,32.2,39,30.30,10.0,South,9.2,17.3,N/A,,Clear,170,2012-11-16 22:15:00
4:35 PM,56.3,33.1,41,30.30,10.0,South,8.1,-,N/A,,Clear,170,2012-11-16 22:35:00
4:55 PM,54.3,33.8,46,30.29,10.0,SSE,8.1,-,N/A,,Clear,160,2012-11-16 22:55:00
5:15 PM,51.1,33.8,52,30.29,10.0,SSE,6.9,-,N/A,,Clear,150,2012-11-16 23:15:00
5:35 PM,47.3,33.1,58,30.28,10.0,SSE,6.9,-,N/A,,Clear,150,2012-11-16 23:35:00
5:55 PM,44.2,32.2,63,30.28,10.0,SSE,6.9,-,N/A,,Clear,150,2012-11-16 23:55:00
6:15 PM,44.8,33.4,64,30.28,10.0,SSE,9.2,-,N/A,,Clear,150,2012-11-17 00:15:00
6:35 PM,44.2,33.3,65,30.28,10.0,SSE,8.1,-,N/A,,Clear,150,2012-11-17 00:35:00
6:55 PM,43.5,33.4,68,30.28,10.0,SSE,6.9,-,N/A,,Clear,150,2012-11-17 00:55:00
7:15 PM,43.0,33.8,70,30.28,10.0,SSE,8.1,-,N/A,,Clear,150,2012-11-17 01:15:00
7:35 PM,43.3,34.2,70,30.27,10.0,SSE,8.1,-,N/A,,Clear,160,2012-11-17 01:35:00
7:55 PM,43.0,34.3,72,30.27,10.0,SSE,6.9,-,N/A,,Clear,160,2012-11-17 01:55:00
8:15 PM,43.0,34.7,73,30.27,10.0,SSE,6.9,-,N/A,,Clear,150,2012-11-17 02:15:00
8:35 PM,42.1,34.7,75,30.27,10.0,SE,6.9,-,N/A,,Clear,140,2012-11-17 02:35:00
8:55 PM,42.8,34.7,73,30.27,10.0,SSE,5.8,-,N/A,,Clear,150,2012-11-17 02:55:00
9:15 PM,45.5,35.8,69,30.27,10.0,SSE,8.1,-,N/A,,Clear,160,2012-11-17 03:15:00
9:35 PM,42.8,34.7,73,30.28,10.0,SSE,4.6,-,N/A,,Clear,150,2012-11-17 03:35:00
9:55 PM,41.0,34.2,77,30.28,10.0,SSE,5.8,-,N/A,,Clear,150,2012-11-17 03:55:00
10:15 PM,41.4,34.7,77,30.28,10.0,SSE,4.6,-,N/A,,Clear,160,2012-11-17 04:15:00
10:35 PM,39.6,33.4,79,30.28,10.0,SSE,5.8,-,N/A,,Clear,150,2012-11-17 04:35:00
10:55 PM,39.2,33.3,79,30.28,10.0,SE,3.5,-,N/A,,Clear,130,2012-11-17 04:55:00
11:15 PM,37.6,32.7,83,30.28,10.0,South,4.6,-,N/A,,Clear,180,2012-11-17 05:15:00
11:35 PM,38.5,33.1,81,30.28,10.0,South,5.8,-,N/A,,Clear,180,2012-11-17 05:35:00
11:55 PM,36.9,32.0,83,30.28,10.0,SSE,4.6,-,N/A,,Clear,160,2012-11-17 05:55:00